Weather History for Fairbanks Eiels, AK

Change the Weather History Date:

Monday, November 19, 2012

  Actual Average Record
Temperature  
Mean Temperature -10 °F -  
Max Temperature 0 °F 6 °F 48 °F (1949)
Min Temperature -21 °F -8 °F -40 °F (2011)
Degree Days  
Heating Degree Days 76    
Moisture  
Dew Point -16 °F    
Average Humidity 54    
Maximum Humidity 71    
Minimum Humidity 47    
Precipitation  
Precipitation 0.00 in - - ()
Sea Level Pressure  
Sea Level Pressure 30.00 in    
Wind  
Wind Speed 7 mph (NE)    
Max Wind Speed 16 mph    
Max Gust Speed -    
Visibility 10 miles    
Events Snow    
Averages and records for this station are not official NWS values.
T = Trace of Precipitation, MM = Missing Value Source: NWS Daily Summary

Daily Weather History Graph

Daily Weather History Graph

Search for Another Location

Airport:

Trip Planner

Search our weather history database for the weather conditions in past years. The results will help you decide how hot, cold, wet, or windy it might be!

Date:

Astronomy

Nov. 19, 2012 Rise Set
Actual Time 9:37 AM AKST 3:29 PM AKST
Civil Twilight 8:32 AM AKST 4:34 PM AKST
Nautical Twilight 7:29 AM AKST 5:37 PM AKST
Astronomical Twilight 6:30 AM AKST 6:35 PM AKST
Moon 1:42 PM AKST (11/19) 11:20 PM AKST (11/19)
Length of Visible Light 8h 01m
Length of Day
5h 51m
Waxing Crescent, 42% of the Moon is Illuminated
Nov 19
Waxing Crescent
Nov 20
First Quarter
Nov 28
Full
Dec 6
Last Quarter
Dec 12
New

Hourly Weather History & Observations

Time (AKST) Temp. Windchill Dew Point Humidity Pressure Visibility Wind Dir Wind Speed Gust Speed Precip Events Conditions
12:55 AM -21.5 °F -32.4 °F -28.1 °F 71% 29.94 in 10.0 mi ESE 3.5 mph - N/A   Clear
1:55 AM -4.0 °F -19.0 °F -17.3 °F 53% 29.94 in 10.0 mi ENE 8.1 mph - N/A   Clear
2:55 AM -3.3 °F -19.3 °F -16.8 °F 53% 29.94 in 10.0 mi NE 9.2 mph - N/A   Clear
3:55 AM -3.3 °F -18.2 °F -17.0 °F 52% 29.96 in 10.0 mi ENE 8.1 mph - N/A   Clear
4:55 AM -2.4 °F -20.1 °F -16.8 °F 50% 29.96 in 10.0 mi NE 11.5 mph - N/A   Clear
5:55 AM -2.6 °F -18.4 °F -17.0 °F 50% 29.98 in 10.0 mi NE 9.2 mph - N/A   Clear
6:55 AM -2.9 °F -17.7 °F -18.2 °F 48% 29.99 in 10.0 mi NNE 8.1 mph - N/A   Clear
7:55 AM -2.6 °F -16.0 °F -18.4 °F 47% 30.00 in 10.0 mi NNE 6.9 mph - N/A   Clear
8:55 AM -2.4 °F -12.7 °F -18.4 °F 47% 30.01 in 10.0 mi Variable 4.6 mph - N/A   Clear
9:55 AM -2.0 °F -18.7 °F -17.5 °F 48% 30.02 in 10.0 mi NE 10.4 mph - N/A   Clear
10:55 AM -4.2 °F -18.0 °F -17.0 °F 54% 30.04 in 10.0 mi North 6.9 mph - N/A   Clear
11:55 AM -1.5 °F -18.1 °F -16.6 °F 49% 30.04 in 10.0 mi NE 10.4 mph - N/A   Clear
12:55 PM -0.4 °F -14.7 °F -16.1 °F 48% 30.04 in 10.0 mi NNE 8.1 mph - N/A   Clear
1:55 PM -0.9 °F -21.2 °F -15.3 °F 51% 30.01 in 10.0 mi NNE 16.1 mph - N/A   Clear
2:55 PM -1.3 °F -18.7 °F -16.1 °F 50% 30.01 in 10.0 mi NE 11.5 mph - N/A   Clear
3:55 PM -1.7 °F -20.0 °F -16.4 °F 50% 30.02 in 10.0 mi NE 12.7 mph - N/A   Clear
4:55 PM -3.1 °F -19.1 °F -17.1 °F 51% 30.02 in 10.0 mi NE 9.2 mph - N/A   Clear
5:55 PM -2.9 °F -16.5 °F -15.7 °F 54% 30.03 in 10.0 mi NNE 6.9 mph - N/A   Overcast
6:55 PM -1.5 °F -16.0 °F -14.8 °F 53% 30.03 in 10.0 mi NNE 8.1 mph - N/A   Overcast
7:55 PM -0.6 °F - -13.9 °F 53% 30.03 in 10.0 mi Calm Calm - N/A   Overcast
8:55 PM -1.5 °F - -12.3 °F 60% 30.03 in 10.0 mi Calm Calm - N/A   Overcast
9:55 PM -1.3 °F -9.3 °F -11.6 °F 62% 30.02 in 10.0 mi ESE 3.5 mph - N/A   Overcast
10:55 PM -4.0 °F -14.6 °F -11.6 °F 70% 30.01 in 10.0 mi WSW 4.6 mph - N/A   Overcast
11:55 PM -4.0 °F - -11.6 °F 70% 30.01 in 10.0 mi Calm Calm - 0.00 in Snow Light Snow